FW4683 Weather Reports


Display with metric or nautical units.
time (UTC)temp
F
wind
direction
speed
MPH
gust
MPH
rain 1hr
in
rain 24hr
in
rain mn
in
humidity
%
barometer
mb
20260906203030 75 96 0.0 6.0 0.00 0.02 0.02 85 1012.5
20260906202529 75 96 2.0 7.0 0.00 0.02 0.02 84 1012.6
20260906202030 75 96 3.0 13.0 0.00 0.02 0.02 83 1012.6
20260906201530 76 96 5.0 13.0 0.00 0.02 0.02 81 1012.5
20260906201030 77 96 6.0 11.0 0.00 0.02 0.02 79 1012.5
20260906200529 77 96 0.0 3.0 0.00 0.02 0.02 78 1012.8
20260906200029 77 96 1.0 10.0 0.00 0.02 0.02 77 1012.9
20260906195530 77 96 0.0 10.0 0.00 0.02 0.02 77 1012.9
20260906195033 78 96 3.0 10.0 0.00 0.02 0.02 76 1012.5
20260906194529 77 96 3.0 7.0 0.00 0.02 0.02 76 1012.4
20260906194028 76 96 2.0 7.0 0.00 0.02 0.02 79 1012.3
20260906193028 75 96 1.0 12.0 0.00 0.02 0.02 81 1012.4
20260906192529 74 96 3.0 7.0 0.00 0.02 0.02 84 1012.7
20260906192029 74 96 0.0 4.0 0.00 0.02 0.02 87 1013.0
20260906191529 73 96 0.0 4.0 0.02 0.02 0.02 87 1012.7
20260906191028 73 96 0.0 3.0 0.02 0.02 0.02 87 1012.5
20260906190529 73 96 1.0 4.0 0.02 0.02 0.02 88 1012.5
20260906190030 73 96 0.0 4.0 0.02 0.02 0.02 89 1012.1
20260906185528 73 96 0.0 4.0 0.02 0.02 0.02 89 1012.2
20260906185030 73 96 0.0 4.0 0.02 0.02 0.02 88 1012.3
20260906184535 73 96 0.0 3.0 0.02 0.02 0.02 86 1012.0
20260906184027 72 96 0.0 4.0 0.02 0.02 0.02 85 1011.8
20260906183035 72 96 3.0 10.0 0.02 0.02 0.02 86 1011.4
20260906182527 73 96 4.0 12.0 0.02 0.02 0.02 87 1011.8
20260906182028 73 96 8.0 22.0 0.02 0.02 0.02 84 1012.9
20260906181535 75 96 12.0 22.0 0.00 0.00 0.00 81 1013.1
20260906181027 76 96 9.0 26.0 0.00 0.00 0.00 79 1012.3
20260906180527 77 96 11.0 26.0 0.00 0.00 0.00 78 1012.1
20260906180027 80 98 13.0 26.0 0.00 0.00 0.00 78 1012.7
20260906175530 83 97 9.0 17.0 0.00 0.00 0.00 73 1012.2
20260906175030 85 97 6.0 11.0 0.00 0.00 0.00 69 1011.7
20260906174526 86 97 0.0 3.0 0.00 0.00 0.00 68 1011.7
20260906174026 86 97 0.0 9.0 0.00 0.00 0.00 68 1011.8
20260906173028 85 97 1.0 7.0 0.00 0.00 0.00 69 1011.5
20260906172533 85 97 1.0 10.0 0.00 0.00 0.00 68 1011.8
20260906172027 84 97 2.0 10.0 0.00 0.00 0.00 70 1011.8
20260906171528 85 97 6.0 10.0 0.00 0.00 0.00 69 1011.4
20260906171027 85 97 5.0 7.0 0.00 0.00 0.00 68 1011.3
20260906170529 84 97 3.0 8.0 0.00 0.00 0.00 69 1011.4
20260906170031 84 97 4.0 8.0 0.00 0.00 0.00 69 1011.4
20260906165526 85 97 2.0 7.0 0.00 0.00 0.00 69 1011.5
20260906165027 85 97 0.0 3.0 0.00 0.00 0.00 69 1011.7
20260906164525 84 97 0.0 8.0 0.00 0.00 0.00 70 1011.9
20260906164027 84 97 2.0 7.0 0.00 0.00 0.00 69 1011.9
20260906163023 85 97 2.0 6.0 0.00 0.00 0.00 70 1012.0
20260906162522 84 97 2.0 7.0 0.00 0.00 0.00 70 1012.2
20260906162020 84 97 0.0 8.0 0.00 0.00 0.00 72 1012.2
20260906161519 83 97 1.0 6.0 0.00 0.00 0.00 73 1012.4
20260906161019 83 97 0.0 4.0 0.00 0.00 0.00 73 1012.4
20260906160518 83 97 2.0 4.0 0.00 0.00 0.00 74 1012.5
20260906160017 81 97 0.0 7.0 0.00 0.00 0.00 76 1012.6
20260906155516 81 97 2.0 7.0 0.00 0.00 0.00 77 1012.8
20260906155013 80 97 3.0 7.0 0.00 0.00 0.00 78 1012.8
20260906154513 79 97 4.0 7.0 0.00 0.00 0.00 79 1012.9
20260906154015 78 97 4.0 8.0 0.00 0.00 0.00 81 1013.0
20260906153021 78 97 1.0 7.0 0.00 0.00 0.00 81 1013.2
20260906152514 78 97 2.0 7.0 0.00 0.00 0.00 80 1013.2
20260906152014 78 97 1.0 7.0 0.00 0.00 0.00 80 1013.1
20260906151516 78 97 1.0 4.0 0.00 0.00 0.00 80 1013.2
20260906151014 78 97 0.0 7.0 0.00 0.00 0.00 80 1013.1
20260906150514 78 97 0.0 7.0 0.00 0.00 0.00 80 1013.1
20260906150017 78 97 1.0 12.0 0.00 0.00 0.00 80 1013.2
20260906145518 78 97 7.0 15.0 0.00 0.00 0.00 80 1013.2
20260906145019 78 97 6.0 15.0 0.00 0.00 0.00 80 1013.2
20260906144517 78 97 2.0 11.0 0.00 0.00 0.00 80 1013.1
20260906144013 77 97 4.0 10.0 0.00 0.00 0.00 81 1013.2
20260906143016 77 97 3.0 14.0 0.00 0.00 0.00 81 1013.3
20260906142510 77 97 6.0 19.0 0.00 0.00 0.00 81 1013.3
20260906142010 77 97 5.0 19.0 0.00 0.00 0.00 81 1013.3
20260906141509 78 98 2.0 11.0 0.00 0.00 0.00 82 1013.2
20260906141008 78 98 2.0 11.0 0.00 0.00 0.00 83 1013.0
20260906140508 79 98 1.0 6.0 0.00 0.00 0.00 82 1012.8
20260906140023 78 98 1.0 7.0 0.00 0.00 0.00 82 1012.7
20260906135505 78 98 1.0 7.0 0.00 0.00 0.00 83 1012.8
20260906135003 77 98 0.0 4.0 0.00 0.00 0.00 84 1012.8
20260906134507 77 98 0.0 8.0 0.00 0.00 0.00 84 1012.9
20260906134001 76 98 0.0 3.0 0.00 0.00 0.00 85 1012.8
20260906133117 76 98 0.0 4.0 0.00 0.00 0.00 84 1012.7
20260906132559 75 98 1.0 4.0 0.00 0.00 0.00 84 1012.8
20260906132057 75 98 0.0 9.0 0.00 0.00 0.00 85 1012.7
20260906131601 75 98 3.0 9.0 0.00 0.00 0.00 85 1012.7
20260906131054 75 98 1.0 4.0 0.00 0.00 0.00 86 1012.7
20260906130554 74 98 0.0 3.0 0.00 0.00 0.00 86 1012.6
20260906130109 74 98 0.0 6.0 0.00 0.00 0.00 86 1012.5
20260906125551 73 98 2.0 4.0 0.00 0.00 0.00 87 1012.5
20260906125051 73 98 1.0 3.0 0.00 0.00 0.00 88 1012.5
20260906124550 73 98 1.0 2.0 0.00 0.00 0.00 88 1012.6
20260906124047 72 98 1.0 2.0 0.00 0.00 0.00 89 1012.5
20260906123047 72 98 0.0 2.0 0.00 0.00 0.00 89 1012.2
20260906122546 71 98 0.0 2.0 0.00 0.00 0.00 90 1012.2
20260906122044 71 98 0.0 2.0 0.00 0.00 0.00 90 1012.2
20260906121543 71 98 0.0 4.0 0.00 0.00 0.00 91 1012.0
20260906121047 70 98 1.0 4.0 0.00 0.00 0.00 91 1012.0
20260906120546 70 98 0.0 1.0 0.00 0.00 0.00 91 1011.8
20260906120048 70 98 0.0 2.0 0.00 0.00 0.00 91 1011.8
20260906115542 70 98 0.0 2.0 0.00 0.00 0.00 91 1011.8
20260906115042 69 98 0.0 0.0 0.00 0.00 0.00 92 1011.6
20260906114542 69 98 0.0 1.0 0.00 0.00 0.00 92 1011.5
20260906114041 69 98 0.0 2.0 0.00 0.00 0.00 93 1011.7
20260906113044 69 98 0.0 1.0 0.00 0.00 0.00 93 1011.7
20260906112542 69 98 0.0 2.0 0.00 0.00 0.00 94 1011.7
20260906112043 69 98 0.0 2.0 0.00 0.00 0.00 94 1011.7
20260906111552 69 98 0.0 2.0 0.00 0.00 0.00 94 1011.5
20260906111043 69 98 0.0 2.0 0.00 0.00 0.00 94 1011.5
20260906110542 69 98 0.0 2.0 0.00 0.00 0.00 94 1011.5
20260906110053 69 98 0.0 2.0 0.00 0.00 0.00 93 1011.5
20260906105541 69 98 0.0 1.0 0.00 0.00 0.00 93 1011.4
20260906105042 69 98 0.0 1.0 0.00 0.00 0.00 93 1011.4
20260906104539 69 98 0.0 1.0 0.00 0.00 0.00 93 1011.4
20260906104039 69 98 0.0 0.0 0.00 0.00 0.00 93 1011.4
20260906103038 69 98 0.0 2.0 0.00 0.00 0.00 93 1011.4
20260906102539 69 98 0.0 3.0 0.00 0.00 0.00 93 1011.4
20260906102038 69 98 0.0 1.0 0.00 0.00 0.00 93 1011.4
20260906101538 69 98 0.0 2.0 0.00 0.00 0.00 93 1011.3
20260906101038 69 98 0.0 2.0 0.00 0.00 0.00 93 1011.3
20260906100538 69 98 0.0 1.0 0.00 0.00 0.00 93 1011.2
20260906100042 69 98 0.0 0.0 0.00 0.00 0.00 93 1011.1
20260906095539 69 98 0.0 1.0 0.00 0.00 0.00 93 1011.2
20260906095037 69 98 0.0 1.0 0.00 0.00 0.00 93 1011.2
20260906094536 69 98 0.0 1.0 0.00 0.00 0.00 93 1011.2
20260906094036 70 98 0.0 1.0 0.00 0.00 0.00 93 1011.1
20260906093047 70 98 0.0 1.0 0.00 0.00 0.00 92 1011.2
20260906092536 70 98 0.0 1.0 0.00 0.00 0.00 93 1011.1
20260906092038 69 98 0.0 1.0 0.00 0.00 0.00 93 1011.2
20260906091535 69 98 0.0 1.0 0.00 0.00 0.00 93 1011.2
20260906091037 69 98 0.0 1.0 0.00 0.00 0.00 93 1011.0
20260906090536 70 98 0.0 4.0 0.00 0.00 0.00 93 1011.0
20260906090100 70 98 1.0 4.0 0.00 0.00 0.00 93 1010.9
20260906085534 70 98 0.0 3.0 0.00 0.00 0.00 93 1010.9
20260906085037 70 98 0.0 2.0 0.00 0.00 0.00 93 1010.9
20260906084536 70 98 0.0 2.0 0.00 0.00 0.00 93 1010.9
20260906084036 70 98 0.0 2.0 0.00 0.00 0.00 93 1010.8
20260906083041 70 98 0.0 1.0 0.00 0.00 0.00 94 1010.8
20260906082536 70 98 0.0 3.0 0.00 0.00 0.00 93 1010.9
20260906082035 70 98 2.0 3.0 0.00 0.00 0.00 93 1010.8
20260906081535 70 98 0.0 2.0 0.00 0.00 0.00 93 1010.8
20260906081035 70 98 0.0 1.0 0.00 0.00 0.00 93 1010.7
20260906080534 70 98 0.0 1.0 0.00 0.00 0.00 93 1010.8
20260906080035 70 98 0.0 2.0 0.00 0.00 0.00 94 1010.8
20260906075534 70 98 1.0 2.0 0.00 0.00 0.00 94 1010.7
20260906075033 70 98 0.0 0.0 0.00 0.00 0.00 94 1010.6
20260906074543 70 98 0.0 1.0 0.00 0.00 0.00 94 1010.7
20260906074032 70 98 0.0 3.0 0.00 0.00 0.00 93 1010.8
20260906073030 71 98 2.0 6.0 0.00 0.00 0.00 92 1010.9
20260906072530 71 98 1.0 6.0 0.00 0.00 0.00 92 1010.9
20260906072030 71 98 2.0 6.0 0.00 0.00 0.00 92 1011.0
20260906071530 71 98 0.0 4.0 0.00 0.00 0.00 92 1010.9
20260906071029 71 98 1.0 4.0 0.00 0.00 0.00 92 1011.1
20260906070528 71 98 0.0 0.0 0.00 0.00 0.00 92 1011.1
20260906070028 71 98 0.0 3.0 0.00 0.00 0.00 92 1010.8
20260906065528 71 98 0.0 3.0 0.00 0.00 0.00 92 1010.9
20260906065028 71 98 0.0 2.0 0.00 0.00 0.00 92 1010.9
20260906064529 71 98 0.0 1.0 0.00 0.00 0.00 92 1010.8
20260906064027 71 98 0.0 1.0 0.00 0.00 0.00 92 1010.8
20260906063026 72 98 0.0 0.0 0.00 0.00 0.00 92 1010.9
20260906062525 72 98 0.0 1.0 0.00 0.00 0.00 92 1011.2
20260906062025 72 98 0.0 1.0 0.00 0.00 0.00 91 1011.1
20260906061525 72 98 0.0 1.0 0.00 0.00 0.00 91 1011.2
20260906061024 72 98 0.0 1.0 0.00 0.00 0.00 91 1011.3
20260906060523 72 98 0.0 1.0 0.00 0.00 0.00 92 1011.3
20260906060023 72 98 0.0 3.0 0.00 0.00 0.00 92 1011.4
20260906055523 72 98 0.0 3.0 0.00 0.00 0.00 92 1011.5
20260906055023 72 98 0.0 2.0 0.00 0.00 0.00 93 1011.5
20260906054521 72 98 0.0 0.0 0.00 0.00 0.00 93 1011.7
20260906054020 72 98 0.0 0.0 0.00 0.00 0.00 93 1011.6
20260906053020 72 98 0.0 0.0 0.00 0.00 0.00 93 1011.8
20260906052517 72 98 0.0 3.0 0.00 0.00 0.00 93 1011.8
20260906052017 72 98 0.0 4.0 0.00 0.00 0.00 93 1012.0
20260906051519 72 98 1.0 4.0 0.00 0.00 0.00 93 1012.0
20260906051015 72 98 1.0 3.0 0.00 0.00 0.00 92 1012.1
20260906050515 73 98 1.0 3.0 0.00 0.00 0.00 92 1012.0
20260906050016 73 98 0.0 0.0 0.00 0.00 0.00 91 1012.1
20260906045514 73 98 0.0 0.0 0.00 0.00 0.00 91 1012.1
20260906045015 73 98 0.0 1.0 0.00 0.00 0.00 91 1012.0
20260906044515 73 98 0.0 1.0 0.00 0.00 0.00 91 1011.9
20260906044015 73 98 0.0 2.0 0.00 0.00 0.00 91 1011.9
20260906043017 73 98 0.0 2.0 0.00 0.00 0.00 92 1011.8
20260906042516 74 98 0.0 0.0 0.00 0.00 0.00 92 1011.7
20260906042015 73 98 0.0 0.0 0.00 0.00 0.00 92 1011.7
20260906041525 73 98 0.0 3.0 0.00 0.00 0.00 93 1011.6
20260906041015 73 98 0.0 3.0 0.00 0.00 0.00 92 1011.7
20260906040515 73 98 1.0 3.0 0.00 0.00 0.00 92 1012.0
20260906040015 74 98 0.0 0.0 0.00 0.00 0.00 92 1011.9
20260906035518 74 98 0.0 1.0 0.00 0.00 0.00 92 1012.0
20260906035015 74 98 0.0 3.0 0.00 0.00 0.00 92 1012.2
20260906034516 74 98 1.0 3.0 0.00 0.00 0.00 92 1012.3
20260906034018 74 98 0.0 1.0 0.00 0.00 0.00 91 1012.2
20260906033015 74 98 0.0 4.0 0.00 0.00 0.00 92 1012.4
20260906032515 74 98 0.0 2.0 0.00 0.00 0.00 91 1012.5
20260906032015 74 98 0.0 4.0 0.00 0.00 0.00 91 1012.5
20260906031514 74 98 0.0 7.0 0.00 0.00 0.00 91 1012.4
20260906031014 75 98 2.0 7.0 0.00 0.00 0.00 90 1012.4
20260906030514 75 98 0.0 1.0 0.00 0.00 0.00 88 1012.5
20260906030014 75 98 0.0 1.0 0.00 0.00 0.00 89 1012.3
20260906025517 75 98 0.0 0.0 0.00 0.00 0.00 89 1012.1
20260906025014 76 98 0.0 0.0 0.00 0.00 0.00 89 1012.0
20260906024513 76 98 0.0 0.0 0.00 0.00 0.00 89 1012.2
20260906024013 76 98 0.0 0.0 0.00 0.00 0.00 89 1012.1
20260906023014 75 98 0.0 0.0 0.00 0.00 0.00 89 1011.9
20260906022512 76 98 0.0 0.0 0.00 0.00 0.00 89 1011.8
20260906022013 76 98 0.0 0.0 0.00 0.00 0.00 90 1011.8
20260906021513 76 98 0.0 1.0 0.00 0.00 0.00 90 1011.7
20260906021012 76 98 0.0 4.0 0.00 0.00 0.00 90 1011.7
20260906020512 75 98 1.0 4.0 0.00 0.00 0.00 90 1011.6
20260906020011 75 98 0.0 4.0 0.00 0.00 0.00 91 1011.6
20260906015515 75 98 1.0 4.0 0.00 0.00 0.00 91 1011.6
20260906015011 76 98 2.0 4.0 0.00 0.00 0.00 90 1011.7
20260906014525 76 98 0.0 3.0 0.00 0.00 0.00 90 1011.6
20260906014012 76 98 1.0 3.0 0.00 0.00 0.00 90 1011.6
20260906013019 76 98 0.0 3.0 0.00 0.00 0.00 89 1011.7
20260906012511 77 98 0.0 3.0 0.00 0.00 0.00 87 1011.5
20260906012011 77 98 0.0 1.0 0.00 0.00 0.00 88 1011.4
20260906011511 77 98 0.0 1.0 0.00 0.00 0.00 89 1011.2
20260906011010 77 98 0.0 0.0 0.00 0.00 0.00 89 1011.3
20260906010512 77 98 0.0 1.0 0.00 0.00 0.00 88 1011.1
20260906010033 78 98 0.0 1.0 0.00 0.00 0.00 87 1011.2
20260906005510 78 98 0.0 0.0 0.00 0.00 0.00 87 1011.2
20260906005014 78 98 0.0 1.0 0.00 0.00 0.00 86 1011.1
20260906004511 78 98 0.0 1.0 0.00 0.00 0.00 86 1011.1
20260906004010 79 98 0.0 1.0 0.00 0.00 0.00 86 1011.0
20260906003010 78 98 0.0 3.0 0.00 0.00 0.00 86 1010.8
20260906002510 79 98 0.0 3.0 0.00 0.00 0.00 85 1010.8
20260906002010 79 98 0.0 1.0 0.00 0.00 0.00 84 1010.7
20260906001510 79 98 0.0 1.0 0.00 0.00 0.00 84 1010.5
20260906001013 79 98 0.0 1.0 0.00 0.00 0.00 85 1010.6
20260906000510 79 98 0.0 4.0 0.00 0.00 0.00 83 1010.4
20260906000010 80 98 1.0 4.0 0.00 0.00 0.00 82 1010.5
20260905235509 80 98 0.0 3.0 0.00 0.00 0.00 81 1010.5
20260905235013 81 98 0.0 3.0 0.00 0.00 0.00 81 1010.4
20260905234510 81 98 0.0 2.0 0.00 0.00 0.00 80 1010.4
20260905234013 82 98 0.0 1.0 0.00 0.00 0.00 78 1010.4
20260905233012 83 98 0.0 1.0 0.00 0.00 0.00 76 1010.3
20260905232510 83 98 0.0 1.0 0.00 0.00 0.00 74 1010.3
20260905232009 83 98 0.0 1.0 0.00 0.00 0.00 73 1010.3
20260905231509 84 98 0.0 1.0 0.00 0.00 0.00 71 1010.2
20260905231011 85 98 0.0 1.0 0.00 0.00 0.00 70 1010.2
20260905230508 86 98 0.0 1.0 0.00 0.00 0.00 70 1010.2
20260905230009 86 98 0.0 1.0 0.00 0.00 0.00 69 1010.2
20260905225508 86 98 0.0 1.0 0.00 0.00 0.00 69 1010.1
20260905225008 86 98 0.0 1.0 0.00 0.00 0.00 70 1010.1
20260905224508 86 98 0.0 1.0 0.00 0.00 0.00 70 1010.1
20260905224012 85 98 1.0 3.0 0.00 0.00 0.00 70 1010.0
20260905223017 85 98 1.0 3.0 0.00 0.00 0.00 70 1010.1
20260905222508 85 98 0.0 4.0 0.00 0.00 0.00 70 1010.1
20260905222007 84 98 0.0 4.0 0.00 0.00 0.00 71 1010.1
20260905221506 84 98 0.0 4.0 0.00 0.00 0.00 71 1010.1
20260905221007 84 98 2.0 6.0 0.00 0.00 0.00 71 1010.2
20260905220506 84 98 2.0 6.0 0.00 0.00 0.00 70 1010.1
20260905220006 84 98 2.0 6.0 0.00 0.00 0.00 71 1010.1
20260905215509 84 98 2.0 6.0 0.00 0.00 0.00 71 1010.2
20260905215004 84 98 2.0 7.0 0.00 0.00 0.00 71 1010.3
20260905214505 84 98 1.0 6.0 0.00 0.00 0.00 70 1010.2
20260905214005 83 98 1.0 7.0 0.00 0.00 0.00 73 1010.2
20260905213003 83 98 1.0 7.0 0.00 0.00 0.00 73 1010.3
20260905212505 83 98 4.0 7.0 0.00 0.00 0.00 72 1010.3
20260905212005 83 98 1.0 6.0 0.00 0.00 0.00 74 1010.5
20260905211511 82 98 2.0 4.0 0.00 0.00 0.00 74 1010.5
20260905211003 82 98 1.0 7.0 0.00 0.00 0.00 74 1010.5
20260905210503 81 98 2.0 11.0 0.00 0.00 0.00 76 1010.5
20260905210002 81 98 2.0 11.0 0.00 0.00 0.00 76 1010.5
20260905205502 80 98 4.0 9.0 0.00 0.00 0.00 76 1010.6
20260905205003 80 98 4.0 8.0 0.00 0.00 0.00 76 1010.7
20260905204502 79 98 4.0 8.0 0.00 0.00 0.00 77 1010.7
20260905204002 78 98 2.0 7.0 0.00 0.00 0.00 79 1011.0